Weather in Valka

Latvia     57˚46′30″N   26˚01′14″E
temp.,
°C
wind,
m/s
gust,
m/s
humid.,
%
clouds,
%
prec.,
mm/h
press.,
hPa
HPBL,
m
1 december, tue
tue123:00sw3798100 2.2 1018373
02:00sw4890100 2.9 1019616
05:00ssw399298 0.0 1020411
08:00−1˚ssw279394 0.0 1022329
11:00+1˚sw378899 0.0 1024736
14:00+1˚ssw3885100 0.0 1026623
17:00−1˚ssw2993100 0.0 1027356
20:00−2˚ssw2794100 0.0 1029313
2 december, wed
wed223:00−1˚ssw2691100 0.0 1030386
02:00−1˚ssw2589100 0.0 1032389
05:00−3˚s239472 0.0 103183
08:00−3˚sse249477 0.0 1032130
11:00−2˚sse258641 0.0 1031270
14:00−2˚sse268436 0.0 1031364
17:00−4˚se37930 0.0 1030236
20:00−4˚se37940 0.0 1029269
3 december, thu
thu323:00−5˚se389427 0.0 1028289
02:00−4˚se389429 0.0 1026287
05:00−3˚se379070 0.0 1025363
08:00−3˚se389175 0.0 1024448
11:00−2˚sse478693 0.0 1022533
14:00−2˚sse488497 0.1 1022672
17:00−2˚se4885100 0.1 1021789
20:00−2˚sse4984100 0.1 1020881
4 december, fri
fri423:00−2˚sse4985100 0.1 1020881
02:00−1˚se41086100 0.1 1019878
05:00se41085100 0.0 1018821
08:00se51083100 0.0 1018882
11:00+1˚se5128199 0.0 1018892
14:00+1˚se51280100 0.0 1018875
17:00+1˚se51284100 0.0 1017890
20:00+2˚se41286100 0.0 1017890
5 december, sat
sat523:00+2˚se51386100 0.0 1017807
02:00+2˚se61487100 0.0 1016762
05:00+2˚se61486100 0.0 1017690
08:00+2˚se61588100 0.0 1017686
11:00+3˚se51389100 0.0 1017693
14:00+3˚se51390100 0.0 1017620
17:00+3˚sse51490100 0.0 1018729
20:00+3˚se41392100 0.0 1018679